Regional Weather Roundup
Issued by NWS Sioux Falls, SD

Home | Current Version | Previous Version | Text Only | Print | Product List | Glossary On
Versions: 1 2 3 4 5 6 7 8 9 10 11 12 13 14 15 16 17 18 19 20 21 22 23 24 25 26 27 28 29 30 31 32 33 34 35 36 37 38 39 40 41 42 43 44 45 46 47 48 49 50
000
ASUS43 KFSD 300110
RWRFSD

WEATHER ROUNDUP FOR SE SOUTH DAKOTA/SW MINNESOTA/NW IOWA
NATIONAL WEATHER SERVICE SIOUX FALLS SD
800 PM CDT SUN MAY 29 2016

NOTE: "FAIR" INDICATES FEW OR NO CLOUDS BELOW 12,000 FEET WITH NO
SIGNIFICANT WEATHER AND OR OBSTRUCTIONS TO VISIBILITY.


SDZ038>040-050-052>070-300200-
SOUTHEAST SOUTH DAKOTA

CITY           SKY/WX    TMP DP  RH WIND       PRES   REMARKS
BROOKINGS      CLEAR     73  52  47 NW7       29.99F
CHAMBERLAIN    SUNNY     75  59  57 E7        29.98S
HURON          SUNNY     75  49  39 S3        29.97S
MADISON        FAIR      72  54  53 N3        30.01S
MITCHELL       CLEAR     76  56  49 E3        29.99S
SIOUX FALLS    CLEAR     74  54  49 NE5       29.99S
WINNER         FAIR      76  57  51 E12       29.97S
YANKTON        CLEAR     75  55  50 E6        29.98R
$$

MNZ071-072-080-081-089-090-097-098-300200-
SOUTHWEST MINNESOTA

CITY           SKY/WX    TMP DP  RH WIND       PRES   REMARKS
FAIRMONT       CLEAR     75  45  33 NW9       29.98R
JACKSON        CLEAR     73  45  35 NW6       30.00S
LUVERNE        CLEAR     73  43  33 N3        30.00S
MARSHALL       CLEAR     76  46  34 NW9       29.97S
MONTEVIDEO     CLEAR     77  43  29 N8        29.97S
PIPESTONE      CLEAR     73  45  35 NW5       30.00F
REDWOOD FALLS  CLEAR     75  44  33 NW8       29.95S
TRACY          CLEAR     75  51  42 NW6       29.98F
WINDOM         CLEAR     73  46  38 CALM      29.99S
WORTHINGTON      N/A     71  53  52 NW7       30.01S
$$

IAZ001>003-012>014-020>022-031-032-NEZ013-014-SDZ071-300200-
NORTHWEST IOWA

CITY           SKY/WX    TMP DP  RH WIND       PRES   REMARKS
CHEROKEE       CLEAR     74  53  48 N5        30.00S
DENISON        CLEAR     79  55  44 NW3       29.98S
ESTHERVILLE    CLEAR     71  57  61 NW7       29.99S
LE MARS        CLEAR     75  54  46 NE5       30.01R
ORANGE CITY    CLEAR     75  48  38 CALM      30.01R
SHELDON        CLEAR     75  55  50 N3        29.99S
SIOUX CITY     CLEAR     79  57  46 NE6       29.99R
SPENCER        CLEAR     72  54  53 NW3       30.00S
STORM LAKE     CLEAR     77  52  41 NW7       30.01S
$$

ABBREVIATIONS USED IN REMARKS
   TC - TEMPERATURE IN CELSIUS
  WCI - WIND CHILL INDEX
   HX - HEAT INDEX
  VSB - VISIBILITY





USA.gov is the U.S. government's official web portal to all federal, state and local government web resources and services.